[TLELIST] Archives

 

[list_settings.list_name] Current TLEs

May 16th 2010 PST

HST 1 20580U 90037B 10136.13124397 .00000403 00000-0 17980-4 0 5650 2 20580 028.4674 089.1232 0003569 216.6672 143.3634 15.00971439899937 ISS (ZARYA) 1 25544U 98067A 10136.48534722 .00002132 00000-0 18998-4 0 1636 2 25544 051.6474 033.2730 0009774 323.8814 015.6069 15.74031845658478 CXO 1 25867U 99040B 10137.29166667 .00000321 00000-0 10000-3 0 4664 2 25867 066.9866 055.1141 8115396 275.2086 353.7295 00.37800899 6274 ____________________________________________________________________ These 2-Line ...Continue Reading

[list_settings.list_name] Current TLEs

May 15th 2010 PST

HST 1 20580U 90037B 10133.13907466 .00000459 00000-0 22325-4 0 5642 2 20580 028.4674 108.6573 0003720 187.3225 172.7302 15.00970283899483 ISS (ZARYA) 1 25544U 98067A 10135.53659722 .00018137 00000-0 12832-3 0 1563 2 25544 051.6480 038.1380 0010117 321.1807 038.6748 15.74015585658322 CXO 1 25867U 99040B 10134.70833333 .00000371 00000-0 10000-3 0 4652 2 25867 066.9819 055.2345 8110157 275.2403 001.9607 00.37799160 6268 ____________________________________________________________________ These 2-Line ...Continue Reading

[list_settings.list_name] Current TLEs

May 14th 2010 PST

HST 1 20580U 90037B 10133.13907466 .00000459 00000-0 22325-4 0 5642 2 20580 028.4674 108.6573 0003720 187.3225 172.7302 15.00970283899483 ISS (ZARYA) 1 25544U 98067A 10134.34824350 .00015497 00000-0 11054-3 0 1495 2 25544 051.6477 044.2448 0009755 315.0337 146.6397 15.73972804658142 CXO 1 25867U 99040B 10134.70833333 .00000371 00000-0 10000-3 0 4652 2 25867 066.9819 055.2345 8110157 275.2403 001.9607 00.37799160 6268 ____________________________________________________________________ These 2-Line ...Continue Reading

[list_settings.list_name] Current TLEs

May 14th 2010 PST

HST 1 20580U 90037B 10133.13907466 .00000459 00000-0 22325-4 0 5642 2 20580 028.4674 108.6573 0003720 187.3225 172.7302 15.00970283899483 ISS (ZARYA) 1 25544U 98067A 10133.39686465 .00016468 00000-0 11740-3 0 1460 2 25544 051.6479 049.1251 0009580 310.6359 156.6406 15.73929661657998 CXO 1 25867U 99040B 10132.04166667 .00000468 00000-0 10000-3 0 4642 2 25867 066.9667 055.3811 8109079 275.2477 358.8927 00.37807098 6258 ____________________________________________________________________ These 2-Line ...Continue Reading

[list_settings.list_name] Current TLEs

May 12th 2010 PST

HST 1 20580U 90037B 10132.14168445 .00000481 00000-0 23979-4 0 5638 2 20580 028.4676 115.1693 0003756 177.5980 182.4627 15.00969892899335 ISS (ZARYA) 1 25544U 98067A 10132.37984110 .00013471 00000-0 97047-4 0 1360 2 25544 051.6467 054.3448 0009623 306.6120 154.2269 15.73886464657837 CXO 1 25867U 99040B 10132.04166667 .00000468 00000-0 10000-3 0 4642 2 25867 066.9667 055.3811 8109079 275.2477 358.8927 00.37807098 6258 ____________________________________________________________________ These 2-Line ...Continue Reading

[list_settings.list_name] Current TLEs

May 11th 2010 PST

HST 1 20580U 90037B 10130.41287347 .00000510 00000-0 26239-4 0 5623 2 20580 028.4675 126.4533 0003703 159.2757 200.7959 15.00968946899075 ISS (ZARYA) 1 25544U 98067A 10131.36386731 .00013968 00000-0 10058-3 0 1304 2 25544 051.6460 059.5605 0009545 301.7162 158.8010 15.73859345657671 CXO 1 25867U 99040B 10132.04166667 .00000468 00000-0 10000-3 0 4642 2 25867 066.9667 055.3811 8109079 275.2477 358.8927 00.37807098 6258 ____________________________________________________________________ These 2-Line ...Continue Reading

[list_settings.list_name] Current TLEs

May 10th 2010 PST

HST 1 20580U 90037B 10127.15472643 .00000569 00000-0 30769-4 0 5611 2 20580 028.4685 147.7239 0003743 127.8601 232.2307 15.00966959898582 ISS (ZARYA) 1 25544U 98067A 10130.51878472 .00015640 00000-0 11214-3 0 1234 2 25544 051.6457 063.8978 0009633 298.5251 050.6731 15.73841377657538 CXO 1 25867U 99040B 10132.04166667 .00000468 00000-0 10000-3 0 4642 2 25867 066.9667 055.3811 8109079 275.2477 358.8927 00.37807098 6258 ____________________________________________________________________ These 2-Line ...Continue Reading

[list_settings.list_name] Current TLEs

May 9th 2010 PST

HST 1 20580U 90037B 10127.15472643 .00000569 00000-0 30769-4 0 5611 2 20580 028.4685 147.7239 0003743 127.8601 232.2307 15.00966959898582 ISS (ZARYA) 1 25544U 98067A 10129.45997846 .00017828 00000-0 12731-3 0 1158 2 25544 051.6452 069.3341 0009818 294.7052 171.5172 15.73815159657373 CXO 1 25867U 99040B 10129.00000000 .00000480 00000-0 10000-3 0 4635 2 25867 066.9482 055.5515 8106550 275.2266 304.8479 00.37808077 6243 ____________________________________________________________________ These 2-Line ...Continue Reading

[list_settings.list_name] Current TLEs

May 8th 2010 PST

HST 1 20580U 90037B 10127.15472643 .00000569 00000-0 30769-4 0 5611 2 20580 028.4685 147.7239 0003743 127.8601 232.2307 15.00966959898582 ISS (ZARYA) 1 25544U 98067A 10128.44324234 .00019756 00000-0 14077-3 0 1103 2 25544 051.6455 074.5534 0009590 289.1904 172.6835 15.73785443657212 CXO 1 25867U 99040B 10121.52738493 .00000000 00000-0 10000-3 0 4625 2 25867 066.9073 055.8553 8094949 275.2021 007.7102 00.37810912 6211 ____________________________________________________________________ These 2-Line ...Continue Reading

[list_settings.list_name] Current TLEs

May 7th 2010 PST

HST 1 20580U 90037B 10127.15472643 .00000569 00000-0 30769-4 0 5611 2 20580 028.4685 147.7239 0003743 127.8601 232.2307 15.00966959898582 ISS (ZARYA) 1 25544U 98067A 10127.12342593 .00022715 00000-0 16144-3 0 1044 2 25544 051.6446 081.3270 0009387 283.8772 255.5181 15.73741966657007 CXO 1 25867U 99040B 10121.52738493 .00000000 00000-0 10000-3 0 4625 2 25867 066.9073 055.8553 8094949 275.2021 007.7102 00.37810912 6211 ____________________________________________________________________ These 2-Line ...Continue Reading
  • This mailing list is a public mailing list - anyone may join or leave, at any time.
  • This mailing list is announce-only.

International Space Station (ISS) / Hubble Space Telescope (HST) / Chandra X-Ray Observatory Orbital Data via EMAIL

Privacy Policy:

Private list